CUTE-1 (CO-55)

Last updated on Thu Oct 30 2025 00:03:10 GMT+0000 (Coordinated Universal Time)

1 27844U 03031E 25302.46858845 .00000505 00000+0 23849-3 0 9990 2 27844 98.6785 308.9398 0010422 131.3372 228.8706 14.24122892158832
UTC large
Height (km)
Speed (km/s)
/
Latitude / Longitude
Inclination (degrees)
Orbital Period (minutes)
Azimuth
Elevation
Range (km)
Doppler Factor

Next 0 passes for location: London (51.5072 / 0.1276)

Sorry there are no passes over London.